Location: Newark
(40.9833°N, 0.0333°W)
Time: 02:26:41
(UTC+00:00)

Altair - Pass Details

Date: 03 November 2020
Orbit: 1502 x 1682 km, 47.2° (Epoch: 02 December)

Event Time Altitude Azimuth Distance (km) Brightness Sun altitude
Rises 11:40:44 0° 292° (WNW) 4,787 9.9 33.7°
Reaches altitude 10° 11:44:47 10° 277° (W) 3,830 9.6 33.7°
Maximum altitude 11:51:25 21° 234° (SW) 3,089 9.9 33.7°
Drops below altitude 10° 11:58:12 10° 190° (S) 3,903 11.1 33.6°
Sets 12:02:26 0° 175° (S) 4,905 11.2 33.6°
